Location: Vancouver
(49.2500°N, 123.1330°W)
Time: 00:31:22
(UTC-08:00)

SO-67 - Visible Passes

Search period start: 28 November 2014 00:00
Search period end: 08 December 2014 00:00
Orbit: 456 x 458 km, 97.1° (Epoch: 27 November)

Date Brightness Start Highest point End Pass type
(mag) Time Alt. Az. Time Alt. Az. Time Alt. Az.
28 Nov ? 06:47:20 10° NE 06:50:20 28° E 06:53:19 10° SSE visible
28 Nov ? 17:23:55 10° ESE 17:26:24 19° ENE 17:28:54 10° NNE visible
28 Nov ? 18:55:59 10° SSW 18:59:08 33° W 19:02:18 10° NNW visible
29 Nov ? 06:15:48 10° ENE 06:17:16 12° E 06:18:44 10° ESE visible
29 Nov ? 18:22:48 10° SSE 18:26:14 87° W 18:29:42 10° NNW visible
30 Nov ? 17:50:17 10° SE 17:53:28 36° ENE 17:56:40 10° N visible
30 Nov ? 19:24:14 10° SW 19:26:32 17° W 19:28:51 10° NW visible
01 Dec ? 06:41:50 10° NE 06:44:42 24° E 06:47:33 10° SSE visible
01 Dec ? 17:18:32 10° ESE 17:20:49 17° ENE 17:23:05 10° NNE visible
01 Dec ? 18:50:13 10° SSW 18:53:27 39° W 18:56:43 10° NNW visible
02 Dec ? 06:10:46 10° ENE 06:11:32 11° E 06:12:17 10° E visible
02 Dec ? 18:17:05 10° SSE 18:20:30 80° ENE 18:23:57 10° N visible
03 Dec ? 07:08:32 10° NNE 07:11:54 50° E 07:15:15 10° S visible
03 Dec ? 17:44:36 10° SE 17:47:40 31° ENE 17:50:46 10° N visible
03 Dec ? 19:18:07 10° SW 19:20:40 19° W 19:23:13 10° NW visible
04 Dec ? 06:36:07 10° NE 06:38:48 21° E 06:41:28 10° SE visible
04 Dec ? 17:12:58 10° E 17:14:58 15° ENE 17:16:58 10° NNE visible
04 Dec ? 18:44:13 10° S 18:47:32 46° W 18:50:52 10° NNW visible
05 Dec ? 18:11:07 10° SSE 18:14:31 67° ENE 18:17:57 10° N visible
06 Dec ? 07:02:33 10° NNE 07:05:51 42° E 07:09:07 10° S visible
06 Dec ? 17:38:41 10° SE 17:41:37 27° ENE 17:44:35 10° N visible
06 Dec ? 19:11:47 10° SSW 19:14:32 22° W 19:17:18 10° NW visible
07 Dec ? 06:30:11 10° NE 06:32:38 18° E 06:35:04 10° SE visible
07 Dec ? 17:07:13 10° E 17:08:51 13° ENE 17:10:30 10° NNE visible
07 Dec ? 18:37:59 10° S 18:41:20 55° W 18:44:44 10° NNW visible
